This demonstration page uses our WeatherBlox Daily Observations layout. Learn more.

38.88101, -77.10428

Hourly Observations for January 18, 2016

Temp ( °F °C ) Dew Point ( °F °C ) Humidity (%) Winds ( mph kmh ) Pressure ( in mb ) Visibility ( mi km ) Precip ( " mm )
12:52 am 00:52 Mostly Cloudy with Scattered Snow Showers 34 1 25 -4 70 70 W 9 15 29.83 1010 9 14.484096 0.001 0.001
1:52 am 01:52 Mostly Cloudy with Scattered Snow Showers 32 0 21 -6 64 64 NW 17 28 29.85 1011 9 14.484096 0.001 0.001
2:52 am 02:52 Mostly Cloudy with Scattered Snow Showers 30 -1 16 -9 55 55 NW 23 37 29.88 1012 9 14.484096 0.001 0.001
3:52 am 03:52 Mostly Clear 27 -3 3 -16 36 36 WNW 22 35 29.94 1014 10 16.09344 0.001 0.001
4:52 am 04:52 Clear 23 -5 7 -14 50 50 NW 17 28 29.97 1015 10 16.09344 0 0
5:52 am 05:52 Clear 19 -7 0 -18 42 42 WNW 18 30 30 1016 10 16.09344 0 0
6:52 am 06:52 Mostly Clear 19 -7 0 -18 42 42 WNW 23 37 30.03 1017 10 16.09344 0 0
7:52 am 07:52 Mostly Sunny 18 -8 0 -18 45 45 NW 15 24 30.06 1018 10 16.09344 0 0
8:52 am 08:52 Mostly Sunny 19 -7 0 -18 42 42 WNW 20 31 30.09 1019 10 16.09344 0 0
9:52 am 09:52 Mostly Sunny 19 -7 1 -17 45 45 W 20 31 30.09 1019 10 16.09344 0 0
10:52 am 10:52 Mostly Sunny 21 -6 1 -17 42 42 NW 25 41 30.12 1020 10 16.09344 0 0
11:52 am 11:52 Partly Cloudy 25 -4 1 -17 36 36 WNW 17 28 30.09 1019 10 16.09344 0 0
12:52 pm 12:52 Mostly Sunny 25 -4 1 -17 36 36 WNW 21 33 30.06 1018 10 16.09344 0 0
1:52 pm 13:52 Partly Cloudy 25 -4 1 -17 36 36 WNW 14 22 30.06 1018 10 16.09344 0 0
2:52 pm 14:52 Mostly Sunny 25 -4 0 -18 33 33 NNW 20 31 30.09 1019 10 16.09344 0 0
3:52 pm 15:52 Mostly Sunny 23 -5 0 -18 36 36 W 20 31 30.09 1019 10 16.09344 0 0
4:52 pm 16:52 Partly Cloudy 21 -6 -2 -19 35 35 W 16 26 30.15 1021 10 16.09344 0 0
5:52 pm 17:52 Mostly Clear 19 -7 -2 -19 38 38 W 17 28 30.18 1022 10 16.09344 0 0
6:52 pm 18:52 Mostly Clear 19 -7 -2 -19 38 38 W 21 33 30.21 1023 10 16.09344 0 0
7:52 pm 19:52 Mostly Clear 18 -8 -2 -19 41 41 WNW 14 22 30.21 1023 10 16.09344 0 0
8:52 pm 20:52 Mostly Clear 18 -8 -4 -20 38 38 NW 10 17 30.24 1024 10 16.09344 0 0
9:52 pm 21:52 Clear 18 -8 -2 -19 41 41 WNW 14 22 30.24 1024 10 16.09344 0 0
10:52 pm 22:52 Clear 18 -8 -2 -19 41 41 WNW 17 28 30.24 1024 10 16.09344 0 0
11:52 pm 23:52 Clear 16 -9 -2 -19 45 45 WNW 14 22 30.24 1024 10 16.09344 0 0

Powered by AerisWeather